Location: *
(43.7000°S, 168.7000°W)
Time: 15:00:21
(UTC+00:00)

Cosmos 1975 Rocket - Pass Details

Date: 07 July 2020
Orbit: 604 x 633 km, 82.5° (Epoch: 03 August)

Event Time Altitude Azimuth Distance (km) Brightness Sun altitude
Rises 16:31:40 0° 356° (N) 2,923 6.6 -23.8°
Reaches altitude 10° 16:33:53 10° 357° (N) 2,024 5.8 -23.4°
Maximum altitude 16:38:23 80° 83° (E) 658 3.1 -22.6°
Drops below altitude 10° 16:42:58 10° 169° (S) 2,053 5.7 -21.8°
Sets 16:45:13 0° 170° (S) 2,967 6.5 -21.4°
